Garland's Hourly Summary for Friday, March 17, 2017
Hour Temp
(f)
RH
(%)
Solar Rad.
(MJ/m2)
Rainfall
(in)
Wind
(mph)
3/17/2017 12:00 AM 64 77 0 0 8.04
3/17/2017 1:00 AM 63 81 0 0 6.88
3/17/2017 2:00 AM 62 84 0 0 6.85
3/17/2017 3:00 AM 63 81 0 0 9.16
3/17/2017 4:00 AM 64 78 0 0 9.86
3/17/2017 5:00 AM 65 76 0 0 10.29
3/17/2017 6:00 AM 65 74 0 0 9.09
3/17/2017 7:00 AM 66 71 0 0 10.46
3/17/2017 8:00 AM 66 71 0.01 0 8.96
3/17/2017 9:00 AM 66 72 0.14 0 9.94
3/17/2017 10:00 AM 67 72 0.43 0 10.4
3/17/2017 11:00 AM 68 70 0.81 0 10.97
3/17/2017 12:00 PM 69 67 1.27 0 11.59
3/17/2017 1:00 PM 69 66 0.93 0 11.99
3/17/2017 2:00 PM 70 66 1.03 0 11.13
3/17/2017 3:00 PM 71 63 1.4 0 10.65
3/17/2017 4:00 PM 71 63 1.17 0 10.92
3/17/2017 5:00 PM 72 60 0.83 0 10.74
3/17/2017 6:00 PM 73 60 0.5 0 9.45
3/17/2017 7:00 PM 73 57 0.24 0 8.01
3/17/2017 8:00 PM 73 56 0.02 0 5.33
3/17/2017 9:00 PM 73 57 0 0 3.44
3/17/2017 10:00 PM 72 58 0 0 3.01
3/17/2017 11:00 PM 71 60 0 0 2.48
Data Summary 68 68 8.78 0.00 8.74